HST,Max TemperatureF,Mean TemperatureF,Min TemperatureF,Max Dew PointF,MeanDew PointF,Min DewpointF,Max Humidity, Mean Humidity, Min Humidity, Max Sea Level PressureIn, Mean Sea Level PressureIn, Min Sea Level PressureIn, Max VisibilityMiles, Mean VisibilityMiles, Min VisibilityMiles, Max Wind SpeedMPH, Mean Wind SpeedMPH, Max Gust SpeedMPH,PrecipitationIn, CloudCover, Events, WindDirDegrees
2012-12-1,80,76,71,76,68,65,100,78,64,30.06,30.02,29.97,10,10,10,14,7,21,0.00,2,,150
2012-12-2,84,77,70,72,67,56,89,71,42,30.06,29.95,29.89,10,9,2,25,10,39,0.56,5,Rain,167
2012-12-3,81,77,73,71,68,62,88,77,58,29.99,29.93,29.90,10,9,4,13,4,,0.33,8,Rain,316
2012-12-4,81,76,71,80,62,53,100,66,45,30.11,30.01,29.94,10,9,2,10,4,20,1.04,6,Rain,150
2012-12-5,82,76,70,73,59,45,87,58,27,30.10,30.03,29.96,10,10,4,15,5,22,0.13,2,Rain,127
2012-12-6,82,76,70,78,63,58,100,63,45,30.02,29.95,29.87,10,10,10,13,5,21,0.00,3,,108
2012-12-7,82,78,73,74,65,59,96,67,57,30.01,29.93,29.82,10,10,10,20,9,29,0.02,4,,170
2012-12-8,80,76,72,80,71,58,100,86,59,29.98,29.94,29.88,10,10,10,12,4,,0.00,4,,335
2012-12-9,82,76,69,80,74,65,100,91,74,30.00,29.93,29.87,10,10,10,10,4,21,0.00,1,,101
2012-12-10,84,77,68,79,71,66,100,89,55,30.05,29.98,29.95,10,10,10,12,4,,0.00,0,,93
2012-12-11,82,75,68,77,67,62,100,79,56,30.11,30.06,30.00,10,10,10,10,3,,0.00,2,,144
2012-12-12,81,74,66,75,68,58,100,79,50,30.14,30.09,30.03,10,10,10,12,3,25,0.00,4,,258
2012-12-13,81,74,66,76,69,62,100,83,56,30.16,30.12,30.07,10,10,10,12,3,,0.00,2,Rain,263
2012-12-14,82,75,68,74,67,59,100,79,48,30.18,30.12,30.08,10,10,8,9,3,,0.00,2,,2
2012-12-15,80,74,69,75,70,65,100,85,69,30.15,30.11,30.05,10,10,10,10,3,,0.00,4,,246
2012-12-16,82,74,66,74,67,57,100,77,47,30.14,30.10,30.04,10,10,10,13,6,,0.00,2,,257
2012-12-17,80,73,66,74,69,65,100,85,69,30.14,30.10,30.04,10,10,10,12,3,,0.00,2,,238
2012-12-18,79,74,68,78,71,64,100,94,82,30.12,30.08,30.02,10,10,10,8,3,,0.04,5,Rain,14
2012-12-19,80,74,68,76,69,60,100,85,71,30.08,30.03,29.98,10,10,10,8,3,,0.00,2,Rain,257
2012-12-20,82,74,66,71,64,59,100,75,45,30.08,30.04,29.96,10,10,10,12,3,16,0.00,1,,69
2012-12-21,80,72,64,72,65,56,100,80,60,30.08,30.03,29.99,10,10,10,12,4,,0.01,3,Rain,60
2012-12-22,80,74,69,72,67,57,93,79,45,30.07,30.02,29.94,10,10,10,12,5,20,0.00,4,,112
2012-12-23,81,74,66,71,65,58,96,74,45,30.02,29.99,29.92,10,10,10,10,5,16,0.00,1,,117
2012-12-24,78,74,70,72,64,56,93,76,46,30.03,29.98,29.94,10,10,10,8,3,,0.04,3,Rain,57
2012-12-25,80,75,70,79,72,67,100,91,83,30.06,30.02,29.97,10,10,6,7,3,,0.03,7,Rain,3
2012-12-26,80,74,68,74,69,64,96,83,64,30.06,30.02,29.96,10,10,10,10,4,,0.00,3,,95
2012-12-27,81,72,64,77,69,62,100,86,71,30.04,29.98,29.93,10,10,10,9,5,,0.00,2,,46
2012-12-28,81,72,64,76,69,60,100,87,69,30.01,29.96,29.90,10,10,10,9,4,,0.00,1,,141
2012-12-29,78,73,68,77,71,65,100,92,79,30.05,29.98,29.93,10,10,10,9,3,,0.00,6,,224
2012-12-30,81,74,68,76,69,63,96,83,67,30.06,30.00,29.96,10,10,10,12,6,,0.00,1,,49
2012-12-31,81,72,64,78,69,61,100,87,78,30.12,30.04,29.99,10,10,10,21,7,28,0.00,2,,12